CW2840 Weather Reports


time (UTC)temp
C
wind
direction
speed
KPH
gust
KPH
rain 1hr
cm
rain 24hr
cm
rain mn
cm
humidity
%
barometer
mb
20260906203102 28 257 0.0 4.8 0.00 0.25 0.25 76 1013.5
20260906201603 28 257 0.0 4.8 0.00 0.25 0.25 77 1013.3
20260906200103 28 257 0.0 8.0 0.00 0.25 0.25 76 1013.0
20260906194602 29 255 3.2 17.7 0.25 0.25 0.25 74 1013.1
20260906193705 27 231 9.7 22.5 0.25 0.25 0.25 86 1013.2
20260906193213 28 216 4.8 20.9 0.25 0.25 0.25 81 1013.0
20260906185310 30 254 8.0 25.7 0.00 0.00 0.00 71 1013.6
20260906183102 31 140 17.7 40.2 0.00 0.00 0.00 64 1013.5
20260906181602 33 110 3.2 14.5 0.00 0.00 0.00 59 1013.3
20260906175223 32 123 3.2 11.3 0.00 0.00 0.00 61 1013.7
20260906174732 33 141 6.4 11.3 0.00 0.00 0.00 59 1013.4
20260906171602 32 93 6.4 11.3 0.00 0.00 0.00 61 1014.0
20260906170103 32 130 4.8 8.0 0.00 0.00 0.00 63 1014.2
20260906164603 31 7 3.2 14.5 0.00 0.00 0.00 63 1014.1
20260906163104 31 350 3.2 17.7 0.00 0.00 0.00 67 1014.2
20260906161602 31 357 6.4 14.5 0.00 0.00 0.00 70 1014.4
20260906160105 30 0 3.2 11.3 0.00 0.00 0.00 77 1014.3
20260906154602 29 0 1.6 11.3 0.00 0.00 0.00 79 1014.6
20260906153105 29 0 1.6 4.8 0.00 0.00 0.00 79 1014.5
20260906151602 29 0 3.2 8.0 0.00 0.00 0.00 80 1014.4
20260906150756 28 134 1.6 4.8 0.00 0.00 0.00 83 1014.5
20260906144601 27 134 1.6 8.0 0.00 0.00 0.00 84 1014.4
20260906143105 27 134 3.2 8.0 0.00 0.00 0.00 85 1014.4
20260906141602 26 134 1.6 8.0 0.00 0.00 0.00 87 1014.5
20260906134602 26 131 3.2 8.0 0.00 0.00 0.00 89 1014.3
20260906133104 25 133 3.2 8.0 0.00 0.00 0.00 90 1014.1
20260906131602 25 133 0.0 4.8 0.00 0.00 0.00 90 1014.0
20260906130755 25 133 1.6 3.2 0.00 0.00 0.00 90 1013.8
20260906124601 24 133 0.0 3.2 0.00 0.00 0.00 91 1013.6
20260906123814 24 133 0.0 3.2 0.00 0.00 0.00 90 1013.3
20260906121603 24 133 0.0 3.2 0.00 0.00 0.00 90 1013.2
20260906120104 24 133 1.6 4.8 0.00 0.00 0.00 90 1013.2
20260906114603 24 133 0.0 3.2 0.00 0.00 0.00 90 1013.3
20260906113802 24 133 0.0 3.2 0.00 0.00 0.00 90 1012.9
20260906111602 24 131 0.0 3.2 0.00 0.00 0.00 90 1012.8
20260906110103 24 131 0.0 3.2 0.00 0.00 0.00 90 1012.5
20260906104602 24 133 0.0 3.2 0.00 0.00 0.00 90 1012.4
20260906103104 24 133 1.6 3.2 0.00 0.00 0.00 90 1012.4
20260906101602 24 131 0.0 3.2 0.00 0.00 0.00 90 1012.3
20260906100104 24 131 0.0 0.0 0.00 0.00 0.00 90 1012.3
20260906094602 24 133 0.0 0.0 0.00 0.00 0.00 90 1012.3
20260906094504 25 131 0.0 3.2 0.00 0.00 0.00 90 1012.3
20260906091602 25 133 0.0 3.2 0.00 0.00 0.00 89 1012.3
20260906090103 25 133 0.0 4.8 0.00 0.00 0.00 89 1012.1
20260906084602 25 133 0.0 3.2 0.00 0.00 0.00 89 1012.0
20260906083105 25 133 0.0 8.0 0.00 0.00 0.00 89 1012.0
20260906081602 25 133 0.0 3.2 0.00 0.00 0.00 89 1012.1
20260906080816 25 133 0.0 4.8 0.00 0.00 0.00 89 1012.3
20260906075258 25 133 0.0 3.2 0.00 0.00 0.00 89 1012.5
20260906073103 25 133 0.0 3.2 0.00 0.00 0.00 89 1012.5
20260906072251 25 133 0.0 3.2 0.00 0.00 0.00 88 1012.5
20260906070103 25 133 1.6 3.2 0.00 0.00 0.00 88 1012.7
20260906065301 25 133 0.0 0.0 0.00 0.00 0.00 88 1012.5
20260906063105 25 133 0.0 3.2 0.00 0.00 0.00 88 1012.6
20260906061602 25 133 0.0 3.2 0.00 0.00 0.00 88 1012.4
20260906060103 25 133 0.0 4.8 0.00 0.00 0.00 88 1012.6
20260906054603 25 133 1.6 4.8 0.00 0.00 0.00 88 1012.6
20260906053104 25 133 0.0 3.2 0.00 0.00 0.00 88 1012.6
20260906051602 25 133 0.0 3.2 0.00 0.00 0.00 88 1012.6
20260906050105 25 133 0.0 3.2 0.00 0.00 0.00 88 1012.5
20260906045305 25 133 0.0 4.8 0.00 0.00 0.00 88 1012.5
20260906043104 25 131 1.6 3.2 0.00 0.00 0.00 88 1012.6
20260906041602 25 131 1.6 8.0 0.00 0.00 0.00 88 1012.6
20260906040603 25 123 0.0 3.2 0.00 0.00 0.00 88 1012.7
20260906040132 25 131 3.2 8.0 0.00 0.00 0.00 88 1012.7
20260906034722 25 123 1.6 3.2 0.00 0.00 0.00 88 1012.6
20260906031602 25 123 0.0 3.2 0.00 0.00 0.00 88 1012.8
20260906030104 25 123 0.0 3.2 0.00 0.00 0.00 88 1012.6
20260906024604 25 123 0.0 3.2 0.00 0.00 0.00 88 1012.4
20260906023103 25 123 1.6 4.8 0.00 0.00 0.00 88 1012.3
20260906021602 25 123 0.0 3.2 0.00 0.00 0.00 88 1012.1
20260906020104 25 123 0.0 4.8 0.00 0.00 0.00 87 1012.1
20260906014602 25 123 3.2 8.0 0.00 0.00 0.00 87 1012.1
20260906013104 25 123 1.6 4.8 0.00 0.00 0.00 87 1011.7
20260906012256 26 123 1.6 4.8 0.00 0.00 0.00 86 1011.5
20260906010104 26 123 3.2 8.0 0.00 0.00 0.00 85 1011.4
20260906005255 26 123 3.2 8.0 0.00 0.00 0.00 85 1011.7
20260906003104 26 123 3.2 4.8 0.00 0.00 0.00 84 1011.8
20260906002258 26 123 3.2 8.0 0.00 0.00 0.00 83 1012.0
20260906000104 26 123 3.2 8.0 0.00 0.00 0.00 82 1012.2
20260905235258 26 127 1.6 11.3 0.00 0.00 0.00 81 1012.5
20260905233104 27 111 4.8 14.5 0.00 0.00 0.00 80 1012.4
20260905231602 27 86 4.8 8.0 0.00 0.00 0.00 78 1012.3
20260905230103 27 86 3.2 8.0 0.00 0.00 0.00 75 1012.3
20260905224602 27 106 4.8 4.8 0.00 0.00 0.00 75 1012.1
20260905223104 27 106 1.6 4.8 0.00 0.00 0.00 75 1011.9
20260905221603 27 106 0.0 17.7 0.00 0.00 0.00 75 1012.0
20260905220103 27 66 4.8 14.5 0.00 0.00 0.00 74 1011.8
20260905215312 28 125 6.4 25.7 0.00 0.00 0.00 72 1012.2
20260905213104 28 124 16.1 32.2 0.00 0.00 0.00 73 1012.0
20260905212313 30 164 9.7 25.7 0.00 0.00 0.00 68 1012.3
20260905210809 31 69 3.2 25.7 0.00 0.00 0.00 63 1011.8